Weather History for KOMA - February, 2014

Change the Weather History Date:

Saturday, February 1, 2014

  Actual Average Record
Temperature  
Mean Temperature 16 °F 25 °F  
Max Temperature 25 °F 35 °F 61 °F (2012)
Min Temperature 6 °F 15 °F -21 °F (1917)
Degree Days  
Heating Degree Days 49 40  
Month to date heating degree days 49 40  
Since 1 July heating degree days 3951 3805  
Cooling Degree Days 0 0  
Month to date cooling degree days 0 0  
Year to date cooling degree days 0 0  
Moisture  
Dew Point 12 °F    
Average Humidity 72    
Maximum Humidity 84    
Minimum Humidity 59    
Precipitation  
Precipitation 0.03 in 0.03 in 0.52 in (1998)
Month to date precipitation 0.03 0.03  
Year to date precipitation 0.17 0.75  
Snow  
Snow 1.40 in 0.20 in - ()
Month to date snowfall 1.4 0.2  
Since 1 July snowfall 6.8 15.3  
Snow Depth 1.00 in    
Sea Level Pressure  
Sea Level Pressure 30.11 in    
Wind  
Wind Speed 10 mph (North)    
Max Wind Speed 25 mph    
Max Gust Speed 31 mph    
Visibility 7 miles    
Events Snow    
T = Trace of Precipitation, MM = Missing Value Source: NWS Daily Summary

Daily Weather History Graph

Daily Weather History Graph

Search for Another Location

Airport or City:

Trip Planner

Search our weather history database for the weather conditions in past years. The results will help you decide how hot, cold, wet, or windy it might be!

Date:

Astronomy

Feb. 01, 2014 Rise Set
Actual Time 7:34 AM CST 5:40 PM CST
Civil Twilight 7:05 AM CST 6:09 PM CST
Nautical Twilight 6:32 AM CST 6:42 PM CST
Astronomical Twilight 6:00 AM CST 7:14 PM CST
Moon 8:23 AM CST (2/1) 8:18 PM CST (2/1)
Length of Visible Light 11h 03m
Length of Day
10h 05m
Waxing Crescent, 5% of the Moon is Illuminated
Feb 1
Waxing Crescent
Feb 6
First Quarter
Feb 14
Full
Feb 22
Last Quarter
Mar 1
New

Hourly Weather History & Observations

Time (CST) Temp. Windchill Dew Point Humidity Pressure Visibility Wind Dir Wind Speed Gust Speed Precip Events Conditions
12:21 AM 21.0 °F - 17.1 °F 85% 29.97 in 3.0 mi Calm Calm - 0.00 in Snow Light Snow
12:52 AM 21.0 °F 16.2 °F 17.1 °F 85% 30.01 in 4.0 mi NNE 3.5 mph - 0.01 in Snow Light Snow
1:52 AM 19.9 °F 14.9 °F 16.0 °F 85% 30.00 in 4.0 mi East 3.5 mph - 0.00 in Snow Light Snow
2:52 AM 19.9 °F 13.4 °F 16.0 °F 85% 29.99 in 3.0 mi NNE 4.6 mph - 0.00 in Snow Light Snow
3:52 AM 19.0 °F 13.9 °F 15.1 °F 85% 29.96 in 4.0 mi NE 3.5 mph - 0.01 in Snow Light Snow
4:52 AM 19.0 °F 12.3 °F 15.1 °F 85% 29.98 in 3.0 mi North 4.6 mph - 0.00 in Snow Light Snow
5:52 AM 19.0 °F 11.1 °F 15.1 °F 85% 29.99 in 2.5 mi North 5.8 mph - 0.00 in Snow Light Snow
5:58 AM 19.0 °F 11.1 °F 15.1 °F 85% 29.94 in 1.5 mi North 5.8 mph - 0.00 in Snow Light Snow
6:28 AM 19.0 °F 12.3 °F 15.1 °F 85% 29.94 in 2.0 mi North 4.6 mph - 0.00 in Snow Light Snow
6:52 AM 19.0 °F - 15.1 °F 85% 29.99 in 2.0 mi Calm Calm - 0.01 in Snow Light Snow
7:00 AM 19.0 °F 13.9 °F 15.1 °F 85% 29.95 in 4.0 mi North 3.5 mph - 0.00 in Snow Light Snow
7:52 AM 18.0 °F - 15.1 °F 88% 30.01 in 6.0 mi Calm Calm - 0.00 in   Overcast
8:52 AM 19.9 °F - 15.1 °F 81% 30.03 in 6.0 mi Calm Calm - 0.00 in Snow Light Snow
9:52 AM 21.0 °F 14.6 °F 16.0 °F 81% 30.05 in 10.0 mi NNW 4.6 mph - 0.00 in   Overcast
10:52 AM 25.0 °F 13.1 °F 19.0 °F 78% 30.08 in 10.0 mi NNW 13.8 mph 17.3 mph N/A   Overcast
11:32 AM 24.1 °F 10.6 °F 17.1 °F 75% 30.04 in 10.0 mi North 17.3 mph - N/A   Overcast
11:52 AM 24.1 °F 9.8 °F 15.1 °F 69% 30.09 in 10.0 mi North 19.6 mph 26.5 mph N/A   Mostly Cloudy
12:52 PM 24.1 °F 9.4 °F 15.1 °F 69% 30.10 in 10.0 mi NNW 20.7 mph - N/A   Mostly Cloudy
1:52 PM 24.1 °F 9.0 °F 14.0 °F 65% 30.10 in 10.0 mi NNW 21.9 mph 29.9 mph N/A   Mostly Cloudy
2:52 PM 25.0 °F 9.5 °F 12.9 °F 60% 30.11 in 10.0 mi North 24.2 mph 28.8 mph N/A   Scattered Clouds
3:52 PM 23.0 °F 8.0 °F 10.9 °F 60% 30.14 in 10.0 mi North 20.7 mph 27.6 mph N/A   Partly Cloudy
4:52 PM 21.0 °F 5.7 °F 10.0 °F 63% 30.18 in 10.0 mi NNW 19.6 mph 25.3 mph N/A   Scattered Clouds
5:52 PM 19.0 °F 4.0 °F 9.0 °F 65% 30.22 in 10.0 mi North 17.3 mph - N/A   Scattered Clouds
6:52 PM 15.1 °F 2.5 °F 7.0 °F 70% 30.27 in 10.0 mi NNW 10.4 mph - N/A   Scattered Clouds
7:52 PM 14.0 °F 1.2 °F 6.1 °F 71% 30.30 in 10.0 mi North 10.4 mph - N/A   Mostly Cloudy
8:52 PM 14.0 °F 1.2 °F 6.1 °F 71% 30.32 in 10.0 mi NNW 10.4 mph - N/A   Mostly Cloudy
9:52 PM 12.9 °F -0.2 °F 5.0 °F 71% 30.34 in 10.0 mi NNW 10.4 mph - N/A   Mostly Cloudy
10:52 PM 8.1 °F -3.2 °F 3.0 °F 80% 30.36 in 10.0 mi North 6.9 mph - N/A   Scattered Clouds
11:52 PM 7.0 °F -4.5 °F 1.9 °F 80% 30.37 in 10.0 mi North 6.9 mph - N/A   Partly Cloudy